www.pogodaiklimat.ru

Погода и климат >> Архив погоды >> Россия >> Забайкальский край >> Средняя Олекма


ПОГОДА в Средней Олекме

  • Прогноз погоды в Средней Олекме
  • Монитор погоды в Средней Олекме

АРХИВ ПОГОДЫ в Средней Олекме

Время (UTC), дата Ветер
(напр.,м/с)
 
Видим.   Явления Облачность Т
(С)
Тd
(С)
f
(%)
Тe
(С)
Тes
(С)
Комфортность P
(гПа)
Po
(гПа)
Тmin
(С)
Tmax
(С)
R
(мм)
R24
(мм)
S
(см)
18 13.07 С 3 н/о {дождь} 10/0
[As op]
+17.7 +17.5 99 +18 +18 1001.8 942.4
21 13.07 штиль 0 10 км слаб. дождь 10/0
[As op]
+16.5 +16.3 99 +16 +17 1001.8 942.1
00 14.07 штиль 0 10 км слаб. дождь 10/0
[As op]
+16.8 +16.8 100 +17 +19 1002.8 943.1 +16.5 27
03 14.07 штиль 0 10 км слаб. ливневой дождь 10 баллов +18.7 +18.7 100 +20 +20 1003.3 944.0
06 14.07 С 2 50 км {ливн. осадки} 10/8 600 м
[Cb cap Ci sp]
+21.8 +18.0 79 +26 +26 душно 1002.7 944.0
09 14.07 С 2 50 км 10/6 600 м
[Cb cap Ci sp]
+22.8 +16.1 66 +27 +27 душно 1002.6 944.0
12 14.07 штиль 0 50 км 10/9 600 м
[Cb cap Ci sp]
+19.6 +15.6 78 +21 +21 комфорт 1002.4 943.2 +22.9 3
15 14.07 штиль 0 н/о ливневой дождь 10/10 600 м
[Cb cap]
+17.3 +17.3 100 +17 +17 1003.4 943.8
18 14.07 штиль 0 н/о ливневой дождь 10/10 600 м
[Cb cap]
+15.7 +15.7 100 +15 +15 1004.7 944.5
21 14.07 штиль 0 10 км ливневой дождь 10/10 600 м
[Cb cap]
+14.2 +14.2 100 +14 +14 1005.8 945.3
00 15.07 штиль 0 10 км {ливн. осадки} 10/10 600 м
[Cb cap]
+15.1 +14.9 99 +15 +15 1006.1 945.8 +14.1 36
03 15.07 С 3 50 км {ливн. осадки} 10/6 600 м
[Cb cap Ci sp]
+18.1 +17.9 99 +18 +18 1007.7 948.0
06 15.07 С 5 50 км {ливн. осадки} 10/4 600 м
[Cb cap Ci sp]
+21.7 +17.9 79 +26 +26 душно 1005.6 946.7
09 15.07 С 3 50 км 10/6 600 м
[Cb cap Ac lent Ci sp]
+21.9 +17.3 75 +26 +26 душно 1005.6 946.7
12 15.07 штиль 0 50 км 10/0
[Ci sp]
+20.7 +16.8 78 +24 +24 комфорт 1005.5 946.4 +22.0 1
15 15.07 штиль 0 н/о 10/0
[Ac lent Ci sp]
+16.9 +16.7 99 +17 +17 1006.9 947.0
00 16.07 штиль 0 50 км {туман} 10/0
[Ci sp]
+16.3 +16.1 99 +16 +24 1009.0 948.8 +13.7
03 16.07 СВ 3 50 км 10 баллов +23.3 +17.3 69 +29 +29 душно 1008.1 949.3
06 16.07 СВ 3 50 км 10/6 600 м
[Cu hum Ci sp]
+26.9 +15.9 51 +30 +30 душно 1006.0 948.0
09 16.07 штиль 0 50 км 10/4 600 м
[Cb cap Ci sp]
+27.7 +15.3 47 +31 +31 душно 1004.5 946.7
12 16.07 штиль 0 50 км 10/0
[As op]
+22.5 +15.9 66 +27 +27 душно 1004.1 945.4 +27.8
15 16.07 С 9 н/о слаб. ливневой дождь {гроза} 10/10 600 м
[Cb cap]
+19.9 +19.7 99 +23 +23 комфорт 1006.0 946.8
18 16.07 СВ 5 н/о {ливн. осадки} 10/10 600 м
[Cb cap]
+16.1 +15.9 99 +15 +15 1007.9 947.5
21 16.07 штиль 0 50 м туман ?/? +16.7 +16.5 99 +17 +17 1009.1 949.0
00 17.07 штиль 0 500 м туман ?/? +17.6 +17.4 99 +18 +18 1009.1 949.2 +16.1 12
03 17.07 штиль 0 50 км {туман} 10/5 600 м
[Cb cap Ci sp]
+24.1 +17.3 66 +28 +28 душно 1007.9 949.3
06 17.07 З 3 50 км 10/4 600 м
[Cb cap Ci sp]
+26.9 +16.8 54 +31 +31 душно 1004.6 946.7
09 17.07 штиль 0 50 км 10/3 600 м
[Cu hum Ci sp]
+27.8 +15.2 46 +30 +33 жарко 1003.4 945.6
12 17.07 штиль 0 50 км 10/0
[Ci fib]
+23.1 +16.0 64 +28 +28 душно 1003.5 944.9 +27.9
15 17.07 штиль 0 н/о ясно +17.1 +16.9 99 +17 +17 1004.6 944.9
18 17.07 штиль 0 н/о ясно +12.6 +12.4 99 +12 +12 1006.1 945.2
21 17.07 штиль 0 50 м туман ?/? +13.1 +12.9 99 +13 +13 1006.4 945.6
00 18.07 штиль 0 500 м туман ?/? +15.3 +15.1 99 +15 +15 1004.0 943.8 +12.5
03 18.07 Ю 3 10 км дым 10/0
[Ci fib]
+26.3 +17.1 57 +30 +30 душно 1000.5 942.7
06 18.07 штиль 0 10 км дым 10/0
[As op]
+27.5 +18.2 57 +32 +32 очень
душно
998.7 941.3
12 18.07 С 9 10 км слаб. ливневой дождь 10/10 600 м
[Cb cap]
+17.3 +17.1 99 +16 +16 999.0 939.6 +27.6 8
00 19.07 С 2 50 км 10/0
[Ac lent Ci sp]
+17.5 +17.0 97 +18 +22 1002.9 943.3 +15.1 0.0
03 19.07 С 4 50 км 10 баллов +20.3 +12.5 61 +22 +22 комфорт 1004.6 945.3
09 19.07 С 2 50 км 10 баллов +21.4 +11.4 53 +23 +23 комфорт 1004.4 945.3
12 19.07 С 2 50 км 10/0
[Ac lent Ci sp]
+18.8 +9.6 55 +20 +20 1005.2 945.5 +21.9
15 19.07 С 2 н/о 10 баллов +16.9 +9.1 60 +17 +17 1006.8 946.7
00 20.07 штиль 0 10 км слаб. дождь 10/0
[As op]
+13.7 +10.9 83 +13 +15 1007.2 946.5 +13.0 0.7
03 20.07 С 5 50 км 10 баллов +14.5 +9.1 70 +13 +13 1007.4 946.7
06 20.07 С 3 10 км осадки на расстоянии 10 баллов +14.1 +7.4 64 +13 +13 1007.5 946.7
09 20.07 С 3 10 км осадки на расстоянии 10 баллов +14.9 +8.4 65 +14 +14 1005.8 945.3
12 20.07 С 3 50 км 10/0
[As op]
+13.1 +11.2 88 +12 +12 1006.0 945.2 +15.1 0.0

 

Местоположение метеостанции Средняя Олекма (Забайкальский край, Россия): широта 55.43 долгота 120.50 высота над уровнем моря 528 м.

В архиве по умолчанию представлена погода в Средней Олекме за последнюю неделю. Архивные данные за месяц целиком и за предыдущие месяцы, начиная с января 2011 года, Вы можете получить, выбрав интересующий диапазон дат из раскрывающегося списка и нажав кнопку "Ввод!".


*Определитесь, кто Вы:
робот инопланетянин человек

Внимание! Время в таблицах - всемирное. Для получения местного времени необходимо прибавить поправку, которая равна 9 ч.

Смотрите также архив погоды в соседних городах и на ближайших метеорологических станциях:

Погода в Тупике (Забайкальский край, Россия) (118 км)
Погода в Усть-Нюкже (Амурская область, Россия) (142 км)
Погода в Лопче (Амурская область, Россия) (143 км)
Погода в Амазаре (Забайкальский край, Россия) (175 км)
Погода в Ерофей Павловиче (Амурская область, Россия) (186 км)
Погода в Могоче (Забайкальский край, Россия) (194 км)
Погода в Удокане (Забайкальский край, Россия) (200 км)
Погода в Чаре (Забайкальский край, Россия) (217 км)
Погода в Большой Лепринде (Забайкальский край, Россия) (226 км)
Погода в Ксеньевской (Забайкальский край, Россия) (239 км)

Пояснения к столбцам:

Ветер - указаны скорость ветра в м/с - средняя за 10 мин, порывы в срок и между сроками (в фигурных скобках) и направление, откуда дует ветер: С - северный, СВ - северо-восточный, В - восточный, ЮВ - юго-восточный, Ю - южный, ЮЗ - юго-западный, З - западный, СЗ - северо-западный.
Видимость - горизонтальная дальность видимости в метрах или километрах. При видимости от 1 до 10 км при отсутствии осадков обычно наблюдается дымка, при ухудшении видимости до 1 км и менее - туман. В сухую погоду видимость может ухудшаться дымом, пылью или мглою.
Явления - указаны атмосферные явления, наблюдавшиеся в срок или в последний час перед сроком; фигурными скобками обозначены явления, наблюдавшиеся между сроками (за 1-3 часа до срока); квадратными скобками обозначены град или гололедные отложения с указанием их диаметра в мм.
Облачность - указаны через наклонную черту общая и нижняя облачность в баллах и высота нижней границы облаков в метрах; квадратными скобками обозначены формы облаков: Ci - перистые, Cs - перисто-слоистые, Cc - перисто-кучевые, Ac - высококучевые, As - высокослоистые, Sc - слоисто-кучевые, Ns - слоисто-дождевые, Cu - кучевые, Cb - кучево-дождевые. Подробнее классификацию облаков см. в Атласе облаков (PDF).
T - Температура воздуха - температура, измеренная на высоте 2 м над землей.
Td - Температура точки росы - температура, при понижении до которой содержащийся в воздухе водяной пар достигнет насыщения.
f - Относительная влажность воздуха - влажноcть воздуха, измеренная на высоте 2 м над землей.
Te - Эффективная температура - температура, которую ощущает одетый по сезону человек в тени. Характеристика душности погоды. При расчете учитывается влияние влажности воздуха и скорости ветра на теплоощущения человека.
Tes - Эффективная температура на солнце - температура, которую ощущает человек, с поправкой на солнечный нагрев. Характеристика знойности погоды. Зависит от высоты солнца над горизонтом, облачности и скорости ветра. Ночью, в пасмурную погоду, а также при ветре 12 м/с и более поправка равна нулю.
P - Атмосферное давление - приведенное к уровню моря атмосферное давление.
Po - Атмосферное давление - измеренное на уровне метеостанции атмосферное давление.
Tmin - Минимальная температура - минимум температуры воздуха на высоте 2 м над землей.
Tmax - Максимальная температура - максимум температуры воздуха на высоте 2 м над землей.
R - Количество осадков - Количество выпавших осадков за период времени, мм. При наведении курсора мыши на число - период времени, за который выпало указанное количество осадков.
R24 - Количество осадков - Количество выпавших осадков за 24 часа, мм.
S - Снежный покров - Высота снежного покрова, см. При наведении курсора мыши на число - состояние снежного покрова и степень покрытия местности в баллах.